FW7353 Weather Reports


Display with metric or nautical units.
time (UTC)temp
F
wind
direction
speed
MPH
gust
MPH
rain 1hr
in
rain 24hr
in
rain mn
in
humidity
%
barometer
mb
20260906113044 71 0 0.0 0.0 0.00 0.00 0.00 95 1010.3
20260906111554 71 0 0.0 0.0 0.00 0.00 0.00 95 1010.1
20260906110056 70 0 0.0 0.0 0.00 0.00 0.00 95 1009.9
20260906104544 71 0 0.0 0.0 0.00 0.00 0.00 95 1009.9
20260906103053 71 0 0.0 0.0 0.00 0.00 0.00 95 1009.8
20260906101550 71 0 0.0 0.0 0.00 0.00 0.00 95 1009.5
20260906100049 71 0 0.0 0.0 0.00 0.00 0.00 95 1009.2
20260906094546 71 0 0.0 0.0 0.00 0.00 0.00 95 1009.2
20260906093054 71 0 0.0 0.0 0.00 0.00 0.00 95 1009.0
20260906091541 71 0 0.0 0.0 0.00 0.00 0.00 95 1009.0
20260906090119 71 0 0.0 0.0 0.00 0.00 0.00 95 1009.1
20260906084550 71 0 0.0 0.0 0.00 0.00 0.00 95 1009.3
20260906083043 71 0 0.0 0.0 0.00 0.00 0.00 95 1009.2
20260906081542 71 0 0.0 0.0 0.00 0.00 0.00 95 1009.1
20260906080041 71 0 0.0 0.0 0.00 0.00 0.00 95 1009.1
20260906074551 72 0 0.0 0.0 0.00 0.00 0.00 95 1009.2
20260906073041 72 0 0.0 0.0 0.00 0.00 0.00 95 1009.0
20260906071540 72 0 0.0 0.0 0.00 0.00 0.00 95 1009.1
20260906070050 72 0 0.0 0.0 0.00 0.00 0.00 95 1009.1
20260906064545 72 0 0.0 0.0 0.00 0.00 0.00 95 1009.2
20260906063042 72 0 0.0 0.0 0.00 0.00 0.00 95 1009.2
20260906061548 72 0 0.0 0.0 0.00 0.00 0.00 95 1009.4
20260906060041 72 0 0.0 0.0 0.00 0.00 0.00 95 1009.4
20260906054545 72 0 0.0 0.0 0.00 0.00 0.00 95 1009.4
20260906053057 73 0 0.0 0.0 0.00 0.00 0.00 95 1009.3
20260906051541 73 0 0.0 0.0 0.00 0.00 0.00 95 1009.4
20260906050050 73 0 0.0 0.0 0.00 0.00 0.00 95 1009.6
20260906044542 73 0 0.0 0.0 0.00 0.00 0.00 95 1009.5
20260906043040 73 0 0.0 0.0 0.00 0.00 0.00 95 1009.4
20260906041551 73 0 0.0 0.0 0.00 0.00 0.00 95 1009.6
20260906040048 73 0 0.0 0.0 0.00 0.00 0.00 95 1009.4
20260906034544 73 0 0.0 0.0 0.00 0.00 0.00 95 1009.4
20260906033045 73 0 0.0 0.0 0.00 0.00 0.00 95 1009.5
20260906031541 73 0 0.0 0.0 0.00 0.00 0.00 95 1009.6
20260906030050 73 0 0.0 0.0 0.00 0.00 0.00 95 1009.6
20260906024600 73 0 0.0 0.0 0.00 0.00 0.00 95 1009.8
20260906023041 73 0 0.0 0.0 0.00 0.00 0.00 95 1009.9
20260906021542 73 0 0.0 0.0 0.00 0.00 0.00 95 1009.8
20260906020042 73 0 0.0 0.0 0.00 0.00 0.00 95 1010.2
20260906014549 73 0 0.0 0.0 0.00 0.00 0.00 95 1010.2
20260906013043 74 0 0.0 0.0 0.00 0.00 0.00 95 1010.1
20260906011554 74 0 0.0 0.0 0.00 0.00 0.00 95 1010.0
20260906010105 74 0 0.0 0.0 0.00 0.00 0.00 95 1010.2
20260906004546 74 0 0.0 0.0 0.00 0.00 0.00 95 1010.4
20260906003046 73 0 0.0 0.0 0.00 0.00 0.00 94 1010.6
20260906001559 74 0 0.0 0.0 0.00 0.00 0.00 95 1010.3
20260906000041 74 0 0.0 0.0 0.00 0.00 0.00 94 1010.2
20260905234539 73 0 0.0 0.0 0.00 0.00 0.00 94 1009.4
20260905233043 74 0 0.0 0.0 0.00 0.00 0.00 93 1008.6
20260905231545 75 0 0.0 0.0 0.00 0.00 0.00 93 1009.4
20260905230048 76 0 0.0 0.0 0.00 0.00 0.00 91 1009.8
20260905224545 80 0 0.0 0.0 0.00 0.00 0.00 82 1009.6
20260905223043 87 0 0.0 0.0 0.00 0.00 0.00 80 1009.2
20260905221550 88 0 0.0 0.0 0.00 0.00 0.00 83 1007.1
20260905220047 89 0 0.0 0.0 0.00 0.00 0.00 82 1007.3
20260905214541 89 0 0.0 0.0 0.00 0.00 0.00 81 1007.3
20260905213056 90 0 0.0 0.0 0.00 0.00 0.00 80 1007.2
20260905211551 90 0 0.0 0.0 0.00 0.00 0.00 79 1007.0
20260905210048 91 0 0.0 0.0 0.00 0.00 0.00 80 1006.9
20260905204541 90 0 0.0 0.0 0.00 0.00 0.00 81 1006.8
20260905203058 90 0 0.0 0.0 0.00 0.00 0.00 80 1006.6
20260905201558 91 0 0.0 0.0 0.00 0.00 0.00 77 1006.9
20260905200041 91 0 0.0 0.0 0.00 0.00 0.00 76 1007.1
20260905194552 92 0 0.0 0.0 0.00 0.00 0.00 73 1006.9
20260905193049 92 0 0.0 0.0 0.00 0.00 0.00 72 1007.2
20260905191559 93 0 0.0 0.0 0.00 0.00 0.00 73 1007.5
20260905190044 93 0 0.0 0.0 0.00 0.00 0.00 72 1007.8
20260905184604 93 0 0.0 0.0 0.00 0.00 0.00 74 1008.2
20260905183109 93 0 0.0 0.0 0.00 0.00 0.00 73 1008.4
20260905181547 93 0 0.0 0.0 0.00 0.00 0.00 71 1008.7
20260905180050 93 0 0.0 0.0 0.00 0.00 0.00 71 1009.0
20260905174541 94 0 0.0 0.0 0.00 0.00 0.00 72 1009.4
20260905173050 94 0 0.0 0.0 0.00 0.00 0.00 73 1009.5
20260905171551 93 0 0.0 0.0 0.00 0.00 0.00 73 1009.4
20260905170057 92 0 0.0 0.0 0.00 0.00 0.00 75 1009.7
20260905164542 91 0 0.0 0.0 0.00 0.00 0.00 77 1010.0
20260905163042 90 0 0.0 0.0 0.00 0.00 0.00 79 1010.1
20260905161548 89 0 0.0 0.0 0.00 0.00 0.00 79 1010.5
20260905160045 89 0 0.0 0.0 0.00 0.00 0.00 80 1010.8
20260905154543 88 0 0.0 0.0 0.00 0.00 0.00 81 1010.8
20260905153052 88 0 0.0 0.0 0.00 0.00 0.00 82 1010.9
20260905151550 87 0 0.0 0.0 0.00 0.00 0.00 84 1011.1
20260905150043 86 0 0.0 0.0 0.00 0.00 0.00 86 1011.0
20260905144552 85 0 0.0 0.0 0.00 0.00 0.00 87 1011.2
20260905143041 85 0 0.0 0.0 0.00 0.00 0.00 88 1011.0
20260905141547 84 0 0.0 0.0 0.00 0.00 0.00 90 1011.1
20260905140047 82 0 0.0 0.0 0.00 0.00 0.00 91 1011.1
20260905134548 81 0 0.0 0.0 0.00 0.00 0.00 93 1011.1
20260905133040 80 0 0.0 0.0 0.00 0.00 0.00 93 1011.2
20260905131543 80 0 0.0 0.0 0.00 0.00 0.00 94 1011.4
20260905130044 79 0 0.0 0.0 0.00 0.00 0.00 95 1011.4
20260905124543 78 0 0.0 0.0 0.00 0.00 0.00 95 1011.5
20260905123050 78 0 0.0 0.0 0.00 0.00 0.00 95 1011.4
20260905121545 78 0 0.0 0.0 0.00 0.00 0.00 95 1011.5
20260905120052 77 0 0.0 0.0 0.00 0.00 0.00 95 1011.4
20260905114549 77 0 0.0 0.0 0.00 0.00 0.00 95 1011.4